Berlin, NH

6:31 AM EDT on May 29, 2017 (GMT -0400)
Berlin Municipal

Weather History for KBML - November, 2011

Change the Weather History Date:

Wednesday, November 9, 2011

  Actual Average Record
Temperature  
Mean Temperature 52 °F -  
Max Temperature 68 °F 40 °F 68 °F (2011)
Min Temperature 34 °F 23 °F 10 °F (2004)
Degree Days  
Heating Degree Days 14    
Growing Degree Days 2 (Base 50)    
Moisture  
Dew Point 39 °F    
Average Humidity 80    
Maximum Humidity 100    
Minimum Humidity 47    
Precipitation  
Precipitation 0.00 in - - ()
Sea Level Pressure  
Sea Level Pressure 30.09 in    
Wind  
Wind Speed 2 mph (SSE)    
Max Wind Speed 14 mph    
Max Gust Speed 17 mph    
Visibility 7 miles    
Events Fog    
Averages and records for this station are not official NWS values.
T = Trace of Precipitation, MM = Missing Value Source: NWS Daily Summary

Daily Weather History Graph

Daily Weather History Graph

Search for Another Location

Airport or City:

Trip Planner

Search our weather history database for the weather conditions in past years. The results will help you decide how hot, cold, wet, or windy it might be!

Date:

Astronomy

Nov. 09, 2011 Rise Set
Actual Time 6:32 AM EST 4:23 PM EST
Civil Twilight 6:01 AM EST 4:54 PM EST
Nautical Twilight 5:26 AM EST 5:29 PM EST
Astronomical Twilight 4:52 AM EST 6:03 PM EST
Moon 3:33 PM EST (11/9) 5:25 AM EST (11/9)
Length of Visible Light 10h 52m
Length of Day
9h 50m
Waxing Gibbous, 99% of the Moon is Illuminated
Nov 9
Waxing Gibbous
Nov 10
Full
Nov 18
Last Quarter
Nov 25
New
Dec 2
First Quarter

Hourly Weather History & Observations

Time (EST) Temp. Windchill Dew Point Humidity Pressure Visibility Wind Dir Wind Speed Gust Speed Precip Events Conditions
1:52 AM 37.9 °F - 34.0 °F 86% 30.23 in 10.0 mi Calm Calm - N/A   Overcast
2:52 AM 39.9 °F - 35.1 °F 83% 30.23 in 10.0 mi Calm Calm - N/A   Overcast
3:52 AM 39.9 °F - 36.0 °F 86% 30.21 in 10.0 mi Calm Calm - N/A   Overcast
4:52 AM 36.0 °F - 33.1 °F 89% 30.23 in 10.0 mi Calm Calm - N/A   Mostly Cloudy
5:52 AM 37.9 °F - 34.0 °F 86% 30.22 in 10.0 mi Calm Calm - N/A   Overcast
6:52 AM 37.9 °F - 35.1 °F 89% 30.24 in 10.0 mi Calm Calm - N/A   Mostly Cloudy
9:52 AM 54.0 °F - 36.0 °F 51% 30.20 in 10.0 mi WNW 3.5 mph - N/A   Clear
10:52 AM 57.9 °F - 39.0 °F 49% 30.17 in 10.0 mi Calm Calm - N/A   Overcast
11:52 AM 60.1 °F - 41.0 °F 49% 30.14 in 10.0 mi Calm Calm - N/A   Mostly Cloudy
12:52 PM 64.0 °F - 44.1 °F 48% 30.11 in 10.0 mi Calm Calm - N/A   Overcast
1:52 PM 68.0 °F - 46.9 °F 47% 30.08 in 10.0 mi SE 13.8 mph 17.3 mph N/A   Mostly Cloudy
2:52 PM 64.9 °F - 46.0 °F 50% 30.07 in 10.0 mi SE 8.1 mph - N/A   Clear
3:52 PM 61.0 °F - 46.9 °F 60% 30.07 in 10.0 mi SE 5.8 mph - N/A   Clear
4:52 PM 57.9 °F - 46.9 °F 67% 30.08 in 10.0 mi ESE 6.9 mph - N/A   Clear
5:52 PM 55.0 °F - 46.9 °F 74% 30.08 in 10.0 mi Calm Calm - N/A   Clear
6:52 PM 53.1 °F - 46.9 °F 80% 30.07 in 10.0 mi Calm Calm - N/A   Clear
7:52 PM 48.9 °F - 45.0 °F 86% 30.06 in 9.0 mi South 3.5 mph - N/A   Clear
8:52 PM 44.1 °F - 42.1 °F 93% 30.05 in 6.0 mi Calm Calm - N/A   Clear
9:41 PM 39.2 °F - 39.2 °F 100% 30.01 in 1.8 mi Calm Calm - N/A   Clear
9:52 PM 41.0 °F 39.0 °F 39.9 °F 96% 30.02 in 1.0 mi North 3.5 mph - N/A   Clear
10:05 PM 39.2 °F 37.0 °F 39.2 °F 100% 30.00 in 2.0 mi Variable 3.5 mph - N/A   Partly Cloudy
10:18 PM 37.4 °F 34.9 °F 37.4 °F 100% 29.99 in 1.0 mi SSE 3.5 mph - N/A   Mist
10:23 PM 37.4 °F 34.9 °F 35.6 °F 93% 29.99 in 0.2 mi SSE 3.5 mph - N/A Fog Fog
10:43 PM 37.4 °F - 37.4 °F 100% 29.98 in 0.8 mi Calm Calm - N/A   Mist
10:52 PM 36.0 °F - 34.0 °F 93% 30.00 in 0.5 mi Calm Calm - N/A Fog Fog
11:10 PM 35.6 °F 32.8 °F 35.6 °F 100% 29.97 in 1.5 mi South 3.5 mph - N/A   Clear
11:14 PM 37.4 °F 34.9 °F 35.6 °F 93% 29.97 in 3.0 mi Variable 3.5 mph - N/A   Clear
11:52 PM 34.0 °F - 32.0 °F 92% 30.00 in 5.0 mi Calm Calm - N/A   Clear